| time (UTC) | temp F | wind direction | speed MPH | gust MPH | rain 1hr in | rain 24hr in | rain mn in | humidity % | barometer mb |
| 20260504194015 | 54 | 304 | 3.0 | 12.0 | 0.00 | 0.00 | 0.00 | 43 | 999.5 |
| 20260504193515 | 54 | 282 | 6.0 | 12.0 | 0.00 | 0.00 | 0.00 | 45 | 999.3 |
| 20260504193034 | 54 | 296 | 3.0 | 11.0 | 0.00 | 0.00 | 0.00 | 45 | 999.4 |
| 20260504192515 | 54 | 284 | 4.0 | 14.0 | 0.00 | 0.00 | 0.00 | 44 | 999.3 |
| 20260504192019 | 54 | 317 | 6.0 | 14.0 | 0.00 | 0.00 | 0.00 | 43 | 999.3 |
| 20260504191531 | 55 | 315 | 5.0 | 12.0 | 0.00 | 0.00 | 0.00 | 43 | 999.1 |
| 20260504191012 | 55 | 337 | 5.0 | 9.0 | 0.00 | 0.00 | 0.00 | 44 | 999.1 |
| 20260504190513 | 55 | 302 | 3.0 | 12.0 | 0.00 | 0.00 | 0.00 | 43 | 999.0 |
| 20260504190030 | 55 | 286 | 5.0 | 12.0 | 0.00 | 0.00 | 0.00 | 45 | 999.0 |
| 20260504185514 | 55 | 51 | 4.0 | 11.0 | 0.00 | 0.00 | 0.00 | 45 | 998.8 |
| 20260504185012 | 55 | 312 | 5.0 | 11.0 | 0.00 | 0.00 | 0.00 | 46 | 998.9 |
| 20260504184530 | 55 | 334 | 4.0 | 11.0 | 0.00 | 0.00 | 0.00 | 44 | 999.1 |
| 20260504184016 | 55 | 257 | 4.0 | 11.0 | 0.00 | 0.00 | 0.00 | 45 | 998.7 |
| 20260504183513 | 55 | 284 | 3.0 | 15.0 | 0.00 | 0.00 | 0.00 | 46 | 998.8 |
| 20260504183033 | 55 | 272 | 6.0 | 18.0 | 0.00 | 0.00 | 0.00 | 45 | 998.7 |
| 20260504182513 | 55 | 270 | 6.0 | 18.0 | 0.00 | 0.00 | 0.00 | 45 | 998.6 |
| 20260504182015 | 55 | 317 | 5.0 | 14.0 | 0.00 | 0.00 | 0.00 | 45 | 998.4 |
| 20260504181531 | 55 | 283 | 4.0 | 12.0 | 0.00 | 0.00 | 0.00 | 46 | 998.4 |
| 20260504181016 | 55 | 307 | 5.0 | 12.0 | 0.00 | 0.00 | 0.00 | 47 | 998.3 |
| 20260504180515 | 55 | 348 | 3.0 | 12.0 | 0.00 | 0.00 | 0.00 | 46 | 998.3 |
| 20260504180033 | 55 | 279 | 4.0 | 12.0 | 0.00 | 0.00 | 0.00 | 46 | 998.2 |
| 20260504175517 | 56 | 331 | 7.0 | 14.0 | 0.00 | 0.00 | 0.00 | 45 | 998.1 |
| 20260504175017 | 56 | 306 | 5.0 | 14.0 | 0.00 | 0.00 | 0.00 | 45 | 998.0 |
| 20260504174532 | 55 | 298 | 5.0 | 12.0 | 0.00 | 0.00 | 0.00 | 48 | 997.8 |
| 20260504174014 | 55 | 299 | 5.0 | 14.0 | 0.00 | 0.00 | 0.00 | 47 | 998.0 |
| 20260504173512 | 55 | 350 | 5.0 | 14.0 | 0.00 | 0.00 | 0.00 | 47 | 997.9 |
| 20260504173034 | 55 | 277 | 3.0 | 13.0 | 0.00 | 0.00 | 0.00 | 49 | 997.9 |
| 20260504172514 | 55 | 317 | 5.0 | 13.0 | 0.00 | 0.00 | 0.00 | 48 | 997.8 |
| 20260504172016 | 55 | 280 | 3.0 | 13.0 | 0.00 | 0.00 | 0.00 | 47 | 997.7 |
| 20260504171544 | 55 | 308 | 6.0 | 13.0 | 0.00 | 0.00 | 0.00 | 47 | 997.8 |
| 20260504171013 | 55 | 270 | 5.0 | 13.0 | 0.00 | 0.00 | 0.00 | 47 | 997.9 |
| 20260504170513 | 55 | 280 | 5.0 | 13.0 | 0.00 | 0.00 | 0.00 | 47 | 997.7 |
| 20260504151013 | 55 | 317 | 7.0 | 17.0 | 0.00 | 0.00 | 0.00 | 45 | 996.2 |
| 20260504150513 | 55 | 315 | 4.0 | 13.0 | 0.00 | 0.00 | 0.00 | 47 | 996.0 |
| 20260504141013 | 54 | 295 | 5.0 | 10.0 | 0.00 | 0.00 | 0.00 | 58 | 995.6 |
| 20260504140514 | 54 | 240 | 5.0 | 13.0 | 0.00 | 0.00 | 0.00 | 58 | 995.8 |
| 20260504130512 | 53 | 300 | 3.0 | 9.0 | 0.00 | 0.00 | 0.00 | 61 | 995.5 |
| 20260504110511 | 55 | 296 | 3.0 | 8.0 | 0.00 | 0.00 | 0.00 | 59 | 993.7 |
| 20260504100514 | 57 | 273 | 8.0 | 16.0 | 0.00 | 0.00 | 0.00 | 50 | 992.3 |
| 20260504081534 | 57 | 246 | 9.0 | 13.0 | 0.00 | 0.00 | 0.00 | 45 | 993.0 |
| 20260504081017 | 57 | 238 | 8.0 | 13.0 | 0.00 | 0.00 | 0.00 | 45 | 993.0 |
| 20260504080515 | 57 | 244 | 8.0 | 13.0 | 0.00 | 0.00 | 0.00 | 45 | 993.2 |
| 20260504050516 | 56 | 243 | 7.0 | 11.0 | 0.00 | 0.00 | 0.00 | 46 | 996.7 |
| 20260504045514 | 56 | 232 | 8.0 | 12.0 | 0.00 | 0.00 | 0.00 | 46 | 997.0 |
| 20260504045013 | 56 | 254 | 6.0 | 10.0 | 0.00 | 0.00 | 0.00 | 46 | 997.1 |
| 20260504044533 | 56 | 247 | 6.0 | 10.0 | 0.00 | 0.00 | 0.00 | 46 | 997.2 |
| 20260504044015 | 56 | 252 | 4.0 | 9.0 | 0.00 | 0.00 | 0.00 | 48 | 997.3 |
| 20260504043515 | 56 | 242 | 5.0 | 9.0 | 0.00 | 0.00 | 0.00 | 49 | 997.4 |
| 20260504043043 | 56 | 238 | 4.0 | 8.0 | 0.00 | 0.00 | 0.00 | 50 | 997.5 |
| 20260504042515 | 55 | 223 | 3.0 | 7.0 | 0.00 | 0.00 | 0.00 | 51 | 997.6 |
| 20260504042012 | 54 | 232 | 2.0 | 5.0 | 0.00 | 0.00 | 0.00 | 53 | 997.6 |
| 20260504041536 | 54 | 246 | 1.0 | 4.0 | 0.00 | 0.00 | 0.00 | 55 | 998.0 |
| 20260504041014 | 53 | 244 | 1.0 | 3.0 | 0.00 | 0.00 | 0.00 | 55 | 998.1 |
| 20260504040512 | 52 | 267 | 0.0 | 1.0 | 0.00 | 0.00 | 0.00 | 55 | 998.1 |
| 20260504040032 | 52 | 267 | 0.0 | 0.0 | 0.00 | 0.00 | 0.00 | 56 | 998.2 |
| 20260504035511 | 53 | 0 | 0.0 | 0.0 | 0.00 | 0.00 | 0.00 | 57 | 998.5 |
| 20260504035014 | 52 | 0 | 0.0 | 2.0 | 0.00 | 0.00 | 0.00 | 59 | 998.6 |
| 20260504034534 | 52 | 0 | 0.0 | 2.0 | 0.00 | 0.00 | 0.00 | 53 | 998.7 |
| 20260504034018 | 51 | 267 | 1.0 | 2.0 | 0.00 | 0.00 | 0.00 | 54 | 998.8 |
| 20260504033513 | 50 | 0 | 0.0 | 2.0 | 0.00 | 0.00 | 0.00 | 57 | 998.9 |
| 20260504033034 | 50 | 0 | 0.0 | 2.0 | 0.00 | 0.00 | 0.00 | 61 | 999.0 |
| 20260504032514 | 50 | 0 | 0.0 | 2.0 | 0.00 | 0.00 | 0.00 | 72 | 999.0 |
| 20260504032015 | 51 | 266 | 0.0 | 2.0 | 0.00 | 0.00 | 0.00 | 70 | 999.3 |
| 20260504031535 | 51 | 0 | 0.0 | 2.0 | 0.00 | 0.00 | 0.00 | 67 | 999.5 |
| 20260504031018 | 52 | 267 | 0.0 | 1.0 | 0.00 | 0.00 | 0.00 | 60 | 999.4 |
| 20260504030514 | 52 | 0 | 0.0 | 1.0 | 0.00 | 0.00 | 0.00 | 65 | 999.5 |
| 20260504030034 | 53 | 0 | 0.0 | 0.0 | 0.00 | 0.00 | 0.00 | 63 | 999.5 |
| 20260504025514 | 53 | 0 | 0.0 | 2.0 | 0.00 | 0.00 | 0.00 | 65 | 999.7 |
| 20260504025014 | 54 | 0 | 0.0 | 2.0 | 0.00 | 0.00 | 0.00 | 63 | 999.8 |
| 20260504024535 | 54 | 0 | 0.0 | 1.0 | 0.00 | 0.00 | 0.00 | 62 | 999.9 |
| 20260504024011 | 55 | 0 | 0.0 | 1.0 | 0.00 | 0.00 | 0.00 | 60 | 999.8 |
| 20260504023511 | 55 | 0 | 0.0 | 1.0 | 0.00 | 0.00 | 0.00 | 48 | 999.9 |
| 20260504023030 | 56 | 0 | 0.0 | 2.0 | 0.00 | 0.00 | 0.00 | 55 | 1000.0 |
| 20260504022511 | 57 | 0 | 0.0 | 2.0 | 0.00 | 0.00 | 0.00 | 56 | 1000.0 |
| 20260504022013 | 58 | 0 | 0.0 | 1.0 | 0.00 | 0.00 | 0.00 | 50 | 1000.1 |
| 20260504021533 | 58 | 0 | 0.0 | 1.0 | 0.00 | 0.00 | 0.00 | 51 | 1000.2 |
| 20260504021011 | 59 | 0 | 0.0 | 2.0 | 0.00 | 0.00 | 0.00 | 48 | 1000.3 |
| 20260504020512 | 60 | 0 | 0.0 | 2.0 | 0.00 | 0.00 | 0.00 | 46 | 1000.3 |
| 20260504020032 | 61 | 267 | 0.0 | 2.0 | 0.00 | 0.00 | 0.00 | 37 | 1000.4 |
| 20260504015512 | 61 | 267 | 0.0 | 2.0 | 0.00 | 0.00 | 0.00 | 36 | 1000.5 |
| 20260504015012 | 61 | 267 | 1.0 | 2.0 | 0.00 | 0.00 | 0.00 | 36 | 1000.3 |
| 20260504014538 | 62 | 267 | 1.0 | 3.0 | 0.00 | 0.00 | 0.00 | 37 | 1000.3 |
| 20260504014014 | 62 | 267 | 1.0 | 3.0 | 0.00 | 0.00 | 0.00 | 36 | 1000.5 |
| 20260504013511 | 62 | 267 | 1.0 | 3.0 | 0.00 | 0.00 | 0.00 | 37 | 1000.5 |
| 20260504013033 | 62 | 272 | 2.0 | 6.0 | 0.00 | 0.00 | 0.00 | 35 | 1000.5 |
| 20260504012514 | 63 | 265 | 2.0 | 6.0 | 0.00 | 0.00 | 0.00 | 36 | 1000.6 |
| 20260504012014 | 63 | 265 | 2.0 | 6.0 | 0.00 | 0.00 | 0.00 | 39 | 1000.5 |
| 20260504011537 | 63 | 257 | 3.0 | 6.0 | 0.00 | 0.00 | 0.00 | 37 | 1000.7 |
| 20260504011012 | 64 | 263 | 3.0 | 6.0 | 0.00 | 0.00 | 0.00 | 36 | 1000.7 |
| 20260504010515 | 64 | 273 | 3.0 | 6.0 | 0.00 | 0.00 | 0.00 | 36 | 1000.7 |
| 20260504010038 | 64 | 269 | 2.0 | 7.0 | 0.00 | 0.00 | 0.00 | 34 | 1000.7 |
| 20260504005514 | 65 | 268 | 3.0 | 7.0 | 0.00 | 0.00 | 0.00 | 34 | 1000.8 |
| 20260504005018 | 65 | 270 | 2.0 | 7.0 | 0.00 | 0.00 | 0.00 | 34 | 1000.8 |
| 20260504004534 | 65 | 264 | 3.0 | 7.0 | 0.00 | 0.00 | 0.00 | 33 | 1001.0 |
| 20260504004017 | 65 | 275 | 3.0 | 8.0 | 0.00 | 0.00 | 0.00 | 34 | 1000.9 |
| 20260504003515 | 65 | 244 | 4.0 | 10.0 | 0.00 | 0.00 | 0.00 | 32 | 1001.0 |
| 20260504003037 | 65 | 259 | 4.0 | 10.0 | 0.00 | 0.00 | 0.00 | 34 | 1000.9 |
| 20260504002514 | 65 | 267 | 3.0 | 10.0 | 0.00 | 0.00 | 0.00 | 35 | 1001.0 |
| 20260504002016 | 65 | 271 | 4.0 | 9.0 | 0.00 | 0.00 | 0.00 | 36 | 1001.0 |
| 20260504001540 | 65 | 272 | 5.0 | 9.0 | 0.00 | 0.00 | 0.00 | 33 | 1001.1 |
| 20260504001014 | 65 | 275 | 3.0 | 8.0 | 0.00 | 0.00 | 0.00 | 34 | 1001.0 |
| 20260504000514 | 65 | 265 | 4.0 | 8.0 | 0.00 | 0.00 | 0.00 | 34 | 1001.1 |
| 20260504000032 | 65 | 262 | 4.0 | 8.0 | 0.00 | 0.00 | 0.00 | 36 | 1001.2 |
| 20260503235516 | 65 | 248 | 3.0 | 8.0 | 0.00 | 0.00 | 0.00 | 34 | 1001.2 |
| 20260503235014 | 65 | 261 | 3.0 | 6.0 | 0.00 | 0.00 | 0.00 | 37 | 1001.1 |
| 20260503234532 | 65 | 275 | 2.0 | 7.0 | 0.00 | 0.00 | 0.00 | 34 | 1001.2 |
| 20260503234015 | 66 | 261 | 3.0 | 7.0 | 0.00 | 0.00 | 0.00 | 31 | 1001.4 |
| 20260503233515 | 66 | 306 | 3.0 | 8.0 | 0.00 | 0.00 | 0.00 | 30 | 1001.4 |
| 20260503233036 | 66 | 288 | 3.0 | 9.0 | 0.00 | 0.00 | 0.00 | 31 | 1001.4 |
| 20260503232516 | 66 | 306 | 4.0 | 13.0 | 0.00 | 0.00 | 0.00 | 33 | 1001.4 |
| 20260503232014 | 65 | 265 | 6.0 | 13.0 | 0.00 | 0.00 | 0.00 | 35 | 1001.5 |
| 20260503231534 | 65 | 258 | 5.0 | 9.0 | 0.00 | 0.00 | 0.00 | 36 | 1001.5 |
| 20260503231017 | 66 | 264 | 5.0 | 11.0 | 0.00 | 0.00 | 0.00 | 34 | 1001.5 |
| 20260503230517 | 66 | 265 | 4.0 | 11.0 | 0.00 | 0.00 | 0.00 | 32 | 1001.6 |
| 20260503230034 | 66 | 267 | 5.0 | 10.0 | 0.00 | 0.00 | 0.00 | 35 | 1001.7 |
| 20260503225517 | 66 | 252 | 6.0 | 10.0 | 0.00 | 0.00 | 0.00 | 32 | 1001.7 |
| 20260503225018 | 66 | 265 | 6.0 | 10.0 | 0.00 | 0.00 | 0.00 | 34 | 1001.6 |
| 20260503224537 | 67 | 255 | 4.0 | 10.0 | 0.00 | 0.00 | 0.00 | 31 | 1001.7 |
| 20260503224015 | 67 | 255 | 5.0 | 13.0 | 0.00 | 0.00 | 0.00 | 32 | 1001.8 |
| 20260503223517 | 67 | 313 | 5.0 | 14.0 | 0.00 | 0.00 | 0.00 | 30 | 1001.7 |
| 20260503223033 | 67 | 257 | 7.0 | 14.0 | 0.00 | 0.00 | 0.00 | 31 | 1002.0 |
| 20260503222515 | 67 | 263 | 6.0 | 12.0 | 0.00 | 0.00 | 0.00 | 30 | 1002.0 |
| 20260503222015 | 67 | 293 | 5.0 | 10.0 | 0.00 | 0.00 | 0.00 | 31 | 1002.1 |
| 20260503221533 | 67 | 254 | 5.0 | 11.0 | 0.00 | 0.00 | 0.00 | 29 | 1002.1 |
| 20260503221014 | 68 | 265 | 4.0 | 11.0 | 0.00 | 0.00 | 0.00 | 29 | 1002.1 |
| 20260503220514 | 68 | 288 | 3.0 | 9.0 | 0.00 | 0.00 | 0.00 | 29 | 1002.3 |
| 20260503220032 | 68 | 256 | 2.0 | 9.0 | 0.00 | 0.00 | 0.00 | 29 | 1002.4 |
| 20260503215511 | 68 | 265 | 3.0 | 11.0 | 0.00 | 0.01 | 0.00 | 27 | 1002.4 |
| 20260503215013 | 68 | 301 | 3.0 | 11.0 | 0.00 | 0.01 | 0.00 | 29 | 1002.4 |
| 20260503214531 | 68 | 270 | 3.0 | 7.0 | 0.00 | 0.01 | 0.00 | 31 | 1002.4 |
| 20260503214012 | 68 | 286 | 3.0 | 8.0 | 0.00 | 0.01 | 0.00 | 29 | 1002.6 |
| 20260503213513 | 68 | 352 | 3.0 | 10.0 | 0.00 | 0.01 | 0.00 | 30 | 1002.5 |
| 20260503213033 | 67 | 290 | 4.0 | 11.0 | 0.00 | 0.01 | 0.00 | 30 | 1002.7 |
| 20260503212512 | 67 | 269 | 4.0 | 11.0 | 0.00 | 0.01 | 0.00 | 34 | 1002.5 |
| 20260503212013 | 67 | 255 | 7.0 | 14.0 | 0.00 | 0.01 | 0.00 | 32 | 1002.7 |
| 20260503211532 | 67 | 355 | 5.0 | 14.0 | 0.00 | 0.01 | 0.00 | 32 | 1002.6 |
| 20260503211014 | 67 | 251 | 3.0 | 12.0 | 0.00 | 0.01 | 0.00 | 28 | 1002.6 |
| 20260503210514 | 67 | 288 | 4.0 | 12.0 | 0.00 | 0.01 | 0.00 | 32 | 1002.8 |
| 20260503210034 | 67 | 268 | 6.0 | 10.0 | 0.00 | 0.01 | 0.00 | 31 | 1002.7 |
| 20260503205514 | 67 | 225 | 1.0 | 9.0 | 0.00 | 0.01 | 0.00 | 32 | 1002.8 |
| 20260503205015 | 67 | 275 | 3.0 | 15.0 | 0.00 | 0.01 | 0.00 | 31 | 1003.0 |
| 20260503204533 | 66 | 246 | 7.0 | 15.0 | 0.00 | 0.01 | 0.00 | 33 | 1003.0 |
| 20260503204017 | 67 | 272 | 4.0 | 11.0 | 0.00 | 0.01 | 0.00 | 32 | 1003.0 |
| 20260503203514 | 67 | 297 | 6.0 | 11.0 | 0.00 | 0.01 | 0.00 | 30 | 1003.2 |
| 20260503203032 | 67 | 346 | 4.0 | 14.0 | 0.00 | 0.01 | 0.00 | 30 | 1003.2 |
| 20260503202513 | 67 | 265 | 5.0 | 14.0 | 0.00 | 0.01 | 0.00 | 29 | 1003.4 |
| 20260503202016 | 67 | 286 | 2.0 | 11.0 | 0.00 | 0.01 | 0.00 | 31 | 1003.4 |
| 20260503201532 | 66 | 296 | 6.0 | 11.0 | 0.00 | 0.01 | 0.00 | 33 | 1003.5 |
| 20260503201011 | 67 | 304 | 4.0 | 9.0 | 0.00 | 0.01 | 0.00 | 30 | 1003.5 |
| 20260503200514 | 67 | 248 | 4.0 | 9.0 | 0.00 | 0.01 | 0.00 | 33 | 1003.6 |
| 20260503200032 | 67 | 252 | 3.0 | 11.0 | 0.00 | 0.01 | 0.00 | 32 | 1003.6 |
| 20260503195513 | 67 | 277 | 7.0 | 11.0 | 0.00 | 0.01 | 0.00 | 30 | 1003.6 |
| 20260503195014 | 67 | 258 | 3.0 | 10.0 | 0.00 | 0.01 | 0.00 | 31 | 1003.8 |
| 20260503194533 | 68 | 342 | 2.0 | 10.0 | 0.00 | 0.01 | 0.00 | 29 | 1003.7 |